NUSAT-2 (BATATA) (41558 NORAD) Tracking and Keplerian Element Data

This shows tracking and keplerian element data for the satellite.

Feedback or suggestion? Click here.




ElementValue
Catalog41558
NameNUSAT-2 (BATATA)
Epoch Orbit40510
Epoch Day239.10871143
Epoch Year2023
RAAN359.4292
Inclination97.4156
Eccentricity0.0007169
Argument of Perigee232.8405
Mean Anonmoly127.2208
Mean Motion15.80418381
Decay Rate0.00203468
L11 41558U 16033C 23239.10871143 .00203468 00000+0 10559-2 0 9994
L22 41558 97.4156 359.4292 0007169 232.8405 127.2208 15.80418381405109



Live tracking and technical data element details for NUSAT-2 (BATATA) (NORAD 41558). NUSAT-2 (BATATA) can be tracked NOW for your location showing map with azimuth and elevation plus other details from your city location.







IsCatalogInMostPopularTable: catalog: 41558, numindb: 620
Update: records affected: 1



GetName: 41558 NUSAT-2 (BATATA)

Hit Count: updated at: Tue, 20 Jan 2026 19:58:25 GMT